Clinton, British Columbia

11:53 AM PST on February 19, 2017 (GMT -0800)
Clinton

Weather History for CWCL - September, 2012

Change the Weather History Date:

Monday, September 24, 2012

  Actual Average Record
Temperature  
Mean Temperature 56 °F -  
Max Temperature 70 °F 49 °F 77 °F (2011)
Min Temperature 42 °F 30 °F 26 °F (1996)
Degree Days  
Heating Degree Days 9    
Growing Degree Days 6 (Base 50)    
Moisture  
Dew Point 41 °F    
Average Humidity 58    
Maximum Humidity 87    
Minimum Humidity 27    
Precipitation  
Precipitation 0.08 in - - ()
Sea Level Pressure  
Sea Level Pressure 30.03 in    
Wind  
Wind Speed 4 mph ()    
Max Wind Speed 9 mph    
Max Gust Speed -    
Visibility 8.4 miles    
Events Rain    
Averages and records for this station are not official NWS values.
T = Trace of Precipitation, MM = Missing Value Source: Averaged Metar Reports

Daily Weather History Graph

Daily Weather History Graph

Search for Another Location

Airport or City:

Trip Planner

Search our weather history database for the weather conditions in past years. The results will help you decide how hot, cold, wet, or windy it might be!

Date:

Astronomy

Sep. 24, 2012 Rise Set
Actual Time 6:56 AM PDT 6:58 PM PDT
Civil Twilight 6:23 AM PDT 7:31 PM PDT
Nautical Twilight 5:44 AM PDT 8:09 PM PDT
Astronomical Twilight 5:03 AM PDT 8:50 PM PDT
Moon 4:16 PM PDT (9/24) 12:45 AM PDT (9/24)
Length of Visible Light 13h 07m
Length of Day
12h 01m
Waxing Gibbous, 71% of the Moon is Illuminated
Sep 24
Waxing Gibbous
Sep 29
Full
Oct 8
Last Quarter
Oct 15
New
Oct 21
First Quarter

Hourly Weather History & Observations

Time (PDT) Temp. Windchill Dew Point Humidity Pressure Visibility Wind Dir Wind Speed Gust Speed Precip Events Conditions
12:00 AM 50.0 °F - 35.6 °F 58% 30.06 in 9.0 mi Calm Calm - N/A   Clear
1:00 AM 48.2 °F - 33.8 °F 58% 30.05 in 9.0 mi SSW 2.3 mph - N/A   Clear
2:00 AM 46 °F - 33 °F 50% 30.04 in 9 mi Calm Calm - -  
2:00 AM 46.4 °F - 33.8 °F 62% 30.04 in 9.0 mi Calm Calm - N/A   Clear
3:00 AM 46.4 °F 44.3 °F 33.8 °F 62% 30.04 in 9.0 mi SSW 4.6 mph - N/A   Clear
4:00 AM 44.6 °F 41.4 °F 33.8 °F 66% 30.03 in 9.0 mi SW 5.8 mph - N/A   Clear
5:00 AM 45 °F - 33 °F 53% 30.04 in 9 mi SSW 5.8 mph - -  
5:00 AM 44.6 °F 41.4 °F 33.8 °F 66% 30.04 in 9.0 mi SSW 5.8 mph - N/A   Clear
6:00 AM 42.8 °F 40.1 °F 33.8 °F 70% 30.05 in 9.0 mi SSW 4.6 mph - N/A   Clear
7:00 AM 42.8 °F 40.1 °F 33.8 °F 70% 30.08 in 9.0 mi SSW 4.6 mph - N/A   Clear
8:00 AM 46 °F - 36 °F 60% 30.10 in 9 mi Calm Calm - -  
8:00 AM 46.4 °F - 37.4 °F 71% 30.10 in 9.0 mi ENE 2.3 mph - N/A   Clear
9:00 AM 51.8 °F - 37.4 °F 58% 30.09 in 9.0 mi ESE 2.3 mph - N/A   Partly Cloudy
10:00 AM 55.4 °F - 39.2 °F 54% 30.08 in 9.0 mi SSE 3.5 mph - N/A   Partly Cloudy
11:00 AM 62 °F - 42 °F 37% 30.05 in 9 mi ESE 2.3 mph - -  
11:00 AM 62.6 °F - 42.8 °F 48% 30.05 in 9.0 mi ESE 2.3 mph - N/A   Partly Cloudy
12:00 PM 64.4 °F - 42.8 °F 45% 30.03 in 9.0 mi SE 2.3 mph - N/A   Partly Cloudy
1:00 PM 68.0 °F - 42.8 °F 40% 30.00 in 9.0 mi North 4.6 mph - N/A   Partly Cloudy
2:00 PM 67 °F - 42 °F 29% 30.00 in 9 mi NNW 5.8 mph - -  
2:00 PM 68.0 °F - 42.8 °F 40% 30.00 in 9.0 mi NNW 5.8 mph - N/A   Scattered Clouds
3:00 PM 68.0 °F - 41.0 °F 37% 29.99 in 9.0 mi NNW 6.9 mph - N/A   Partly Cloudy
4:00 PM 66.2 °F - 42.8 °F 43% 30.00 in 9.0 mi NNW 5.8 mph - N/A   Partly Cloudy
5:00 PM 67 °F - 41 °F 27% 29.99 in 9 mi North 6.9 mph - -  
5:00 PM 68.0 °F - 41.0 °F 37% 29.99 in 9.0 mi NNW 6.9 mph - N/A   Partly Cloudy
5:57 PM 64.4 °F - 41.0 °F 42% 29.99 in 9.0 mi NNW 9.2 mph - N/A Rain Light Rain
6:00 PM 64.4 °F - 41.0 °F 42% 30.00 in 9.0 mi NNW 6.9 mph - N/A Rain Light Rain
6:11 PM 64.4 °F - 41.0 °F 42% 29.99 in 9.0 mi NNW 8.1 mph - N/A   Clear
7:00 PM 62.6 °F - 41.0 °F 45% 30.01 in 9.0 mi NNW 3.5 mph - N/A   Partly Cloudy
7:09 PM 62.6 °F - 41.0 °F 45% 30.00 in 9.0 mi NNW 3.5 mph - N/A Rain Light Rain
7:57 PM 55.4 °F - 48.2 °F 77% 30.02 in 3.0 mi NNW 6.9 mph - N/A Rain Light Rain
8:00 PM 55 °F - 48 °F 69% 30.05 in 3 mi NNW 6.9 mph - - Rain Light Rain
8:00 PM 55.4 °F - 48.2 °F 77% 30.05 in 3.0 mi NNW 6.9 mph - N/A Rain Light Rain
8:01 PM 55.4 °F - 48.2 °F 77% 30.02 in 2.5 mi NNW 6.9 mph - N/A Rain Light Rain
8:33 PM 53.6 °F - 48.2 °F 82% 30.02 in 9.0 mi North 5.8 mph - N/A Rain Light Rain
8:41 PM 53.6 °F - 48.2 °F 82% 30.02 in 9.0 mi North 4.6 mph - N/A   Overcast
9:00 PM 53.6 °F - 48.2 °F 82% 30.05 in 9.0 mi North 4.6 mph - N/A   Mostly Cloudy
10:00 PM 51.8 °F - 46.4 °F 82% 30.05 in 9.0 mi NW 4.6 mph - N/A   Partly Cloudy
11:00 PM 51 °F - 46 °F 77% 30.04 in 9 mi NW 8.1 mph - -  
11:00 PM 50.0 °F - 46.4 °F 87% 30.04 in 9.0 mi NW 9.2 mph - N/A   Partly Cloudy